Terug naar catalogus

TJS-14

ActiefCommunicatieGEO
NORAD 62804·PAYLOAD·🇨🇳 China

Gelanceerd Jan 23, 2025 vanaf Xichang Satellite Launch Center

Loading…

TLE

VersSource: Space-Track

Epoch: Sep 14, 2026, 19:01 UTC

1 62804U 25017A   26257.79260767  .00000107  00000-0  00000+0 0  9998
2 62804   0.5947 304.5694 0003143 325.8763  27.0949  1.00268863  6161

Volg TJS-14 in realtime met AllMySat

Download on the App Store